Location: St. Louis
(38.6270°N, 90.1994°W)
Time: 01:38:46
(UTC-06:00)

Vanguard 2 - Pass Details

Date: 07 December 2021
Orbit: 553 x 2936 km, 32.9° (Epoch: 16 January)

Event Time Altitude Azimuth Distance (km) Brightness Sun altitude
Rises 12:49:12 0° 247° (WSW) 2,720 10.9 27.3°
Reaches altitude 10° 12:51:21 10° 238° (WSW) 1,877 10.3 27.1°
Maximum altitude 12:55:12 39° 169° (SSE) 991 9.5 26.9°
Drops below altitude 10° 13:00:18 10° 101° (E) 2,490 10.2 26.7°
Sets 13:03:33 0° 94° (E) 3,762 10.9 26.5°
